This demonstration page uses our WeatherBlox Daily Observations layout. Learn more.

Left ArrowRight Arrow

Hourly Observations for March 15, 2018

Temp ( °F °C ) Dew Point ( °F °C ) Humidity (%) Winds ( mph kmh ) Pressure ( in mb ) Visibility ( mi km ) Precip ( " mm )
12:59 am 00:59 Partly Cloudy 36 2.2 16 -8.9 44 44 W 18 30 29.92 1013 10 16 0.00 0.00
1:59 am 01:59 Mostly Clear 35 1.7 16 -8.9 46 46 W 15 24 29.93 1014 10 16 0.00 0.00
2:59 am 02:59 Partly Cloudy 34 1.1 17 -8.3 50 50 W 15 24 29.93 1014 10 16 0.00 0.00
3:59 am 03:59 Partly Cloudy 34 1.1 17 -8.3 50 50 W 13 20 29.93 1013 10 16 0.00 0.00
4:59 am 04:59 Partly Cloudy 33 0.6 17 -8.3 52 52 W 10 17 29.92 1013 10 16 0.00 0.00
5:59 am 05:59 Mostly Clear 33 0.6 17 -8.3 52 52 WSW 9 15 29.92 1013 10 16 0.00 0.00
6:59 am 06:59 Clear 32 0 17 -8.3 54 54 WSW 12 19 29.92 1013 10 16 0.00 0.00
7:59 am 07:59 Sunny 33 0.6 17 -8.3 52 52 WSW 10 17 29.92 1013 10 16 0.00 0.00
8:59 am 08:59 Sunny 36 2.2 18 -7.8 48 48 WSW 16 26 29.91 1013 10 16 0.00 0.00
9:59 am 09:59 Mostly Sunny 41 5 19 -7.2 41 41 SW 13 20 29.86 1011 10 16 0.00 0.00
10:59 am 10:59 Mostly Sunny 44 6.7 20 -6.7 38 38 SSW 10 17 29.85 1011 10 16 0.00 0.00
11:59 am 11:59 Mostly Cloudy 48 8.9 21 -6.1 34 34 SW 13 20 29.82 1010 10 16 0.00 0.00
12:59 pm 12:59 Partly Cloudy 50 10 20 -6.7 30 30 SW 21 33 29.78 1008 10 16 0.00 0.00
1:59 pm 13:59 Mostly Cloudy 52 11.1 19 -7.2 27 27 WSW 18 30 29.72 1007 10 16 0.00 0.00
2:59 pm 14:59 Mostly Cloudy 53 11.7 21 -6.1 28 28 W 15 24 29.69 1005 10 16 0.00 0.00
3:59 pm 15:59 Mostly Cloudy 57 13.9 21 -6.1 25 25 WSW 21 33 29.65 1004 10 16 0.00 0.00
4:59 pm 16:59 Partly Cloudy 59 15 24 -4.4 26 26 W 14 22 29.62 1003 10 16 0.00 0.00
5:59 pm 17:59 Partly Cloudy 59 15 26 -3.3 28 28 W 12 19 29.62 1003 10 16 0.00 0.00
6:59 pm 18:59 Partly Cloudy 52 11.1 24 -4.4 34 34 NNE 7 11 29.65 1004 10 16 0.00 0.00
7:59 pm 19:59 Partly Cloudy 46 7.8 30 -1.1 54 54 Calm 29.68 1005 10 16 0.00 0.00
8:59 pm 20:59 Partly Cloudy 44 6.7 29 -1.7 55 55 NW 5 7 29.71 1006 10 16 0.00 0.00
9:59 pm 21:59 Mostly Clear 46 7.8 30 -1.1 54 54 NNE 7 11 29.73 1007 10 16 0.00 0.00
10:59 pm 22:59 Mostly Clear 41 5 30 -1.1 65 65 ENE 5 7 29.74 1007 10 16 0.00 0.00
11:59 pm 23:59 Mostly Clear 39 3.9 31 -0.6 73 73 SSE 3 6 29.75 1007 10 16 0.00 0.00

Powered by AerisWeather